Hourly Data Report for October 03, 2015

All times are specified in Local Standard Time (LST). Add 1 hour to adjust for Daylight Saving Time where and when it is observed.

ARVIAT A
NUNAVUT

61°05'38.000" N
94°04'18.000" W
10.40 m
2300427
71174
YEK

Download Data

Hourly Data (October 2015)
Hourly Data Report for October 3, 2015
Temp Definition
°C
Dew Point Temp Definition
°C
Rel Hum Definition
%
Wind Dir Definition
10's deg

Wind Spd Definition
km/h
Visibility Definition
km
Stn Press Definition
kPa
Hmdx Definition


Wind Chill Definition


Weather Definition


TIME
00:00 Legend Double Dagger 8.8 6.6 86 20 30 16.1 101.76     LegendNANA
01:00 Legend Double Dagger 8.9 6.7 86 20 32 16.1 101.74     LegendNANA
02:00 Legend Double Dagger 8.9 6.7 86 20 32 16.1 101.72     LegendNANA
03:00 Legend Double Dagger 8.5 6.6 88 20 34 16.1 101.68     LegendNANA
04:00 Legend Double Dagger 8.4 6.5 88 20 35 16.1 101.66     LegendNANA
05:00 Legend Double Dagger 8.1 6.6 90 20 28 16.1 101.64     LegendNANA
06:00 Legend Double Dagger 7.2 6.0 92 21 28 16.1 101.65     LegendNANA
07:00 Legend Double Dagger 7.1 5.6 90 21 24 16.1 101.65     LegendNANA
08:00 Legend Double Dagger 7.3 5.8 90 21 24 16.1 101.65     LegendNANA
09:00 Legend Double Dagger 7.4 5.9 90 22 21 16.1 101.67     LegendNANA
10:00 Legend Double Dagger 9.7 6.9 83 23 22 16.1 101.71     LegendNANA
11:00 Legend Double Dagger 7.0 5.6 91 31 32 16.1 101.79     LegendNANA
12:00 Legend Double Dagger 5.2 3.7 90 32 34 16.1 101.94     LegendNANA
13:00 Legend Double Dagger 3.7 3.0 95 33 28 16.1 102.05     LegendNANA
14:00 Legend Double Dagger 3.3 2.6 95 34 35 16.1 102.16     Rain
15:00 Legend Double Dagger 3.4 2.2 92 34 37 16.1 102.24     LegendNANA
16:00 Legend Double Dagger 3.1 1.8 91 35 32 16.1 102.32     Rain
17:00 Legend Double Dagger 3.1 1.0 86 35 34 16.1 102.40     Rain
18:00 Legend Double Dagger 2.7 1.0 88 1 37 16.1 102.50     LegendNANA
19:00 Legend Double Dagger 2.6 0.6 87 1 32 16.1 102.67     LegendNANA
20:00 Legend Double Dagger 2.3 0.8 90 36 30 16.1 102.75     LegendNANA
21:00 Legend Double Dagger 2.4 0.1 85 1 34 16.1 102.82     LegendNANA
22:00 Legend Double Dagger 1.7 0.3 90 36 26 16.1 102.87     LegendNANA
23:00 Legend Double Dagger 1.4 0.5 94 1 32 16.1 102.88     Rain

Notes on Data Quality.

Legend

  • E = Estimated
  • M = Missing
  • NA = Not Available
  • ‡ = Partner data that is not subject to review by the National Climate Archives
Date modified: